Home   Weather   Rathenow   Past weeks

Flag for Germany Past Weather in Rathenow, Brandenburg, Germany — Yesterday and Last 2 Weeks

Now
61 °F

Clear.


Feels Like: 61 °F
Forecast: 54 / 69 °F
Wind: 2 mph from North

Location: Berlin-Tegel

Current Time: Sep 27, 2016 at 9:01:22 PM

Latest Report: Sep 27, 2016 at 8:20 PM


Visibility: 10 mi

Pressure: 30.30 "Hg

Humidity: 59%

Dew Point: 46 °F

Location of RathenowLocation

Past Weather in Rathenow — Graph

°F

Rathenow Temperature Yesterday

Maximum temperature yesterday: 70 °F (at 3:50 PM)
Minimum temperature yesterday: 52 °F (at 5:20 AM)
Average temperature yesterday: 60 °F

High & Low Weather Summary for the Past Weeks

 TemperatureHumidityPressure
High88 °F (Sep 13, 1:50 PM)94% (Sep 24, 3:20 AM)30.30 "Hg (Sep 24, 3:20 AM)
Low45 °F (Sep 20, 6:50 AM)24% (Sep 13, 3:20 PM)29.83 "Hg (Sep 16, 5:50 PM)
Average64 °F61%30.09 "Hg
* Reported Sep 12 7:20 PM — Sep 27 7:50 PM, Rathenow, Weather by CustomWeather, © 2016

Note: Actual official high and low records may vary slightly from our data, if they occured in-between our weather recording intervals... More about our weather records

Advertising

Rathenow Weather History for the Previous 24 Hours

Scroll right to see more
 ConditionsComfort  
Time TempWeatherWind HumidityBarometerVisibility
7:50 PM
Tue, Sep 27
63 °FClear.1 mph52%30.30 "Hg10 mi
7:20 PM64 °FClear.1 mph49%30.30 "Hg10 mi
6:50 PM68 °FPassing clouds.5 mph43%30.30 "HgN/A
6:20 PM68 °FPassing clouds.5 mph40%30.30 "HgN/A
5:50 PM70 °FSunny.2 mph38%30.30 "Hg10 mi
5:20 PM70 °FPassing clouds.5 mph38%30.27 "HgN/A
4:50 PM70 °FSunny.3 mph35%30.30 "Hg10 mi
4:20 PM70 °FPassing clouds.3 mph35%30.30 "HgN/A
3:50 PM72 °FPassing clouds.5 mph33%30.30 "HgN/A
3:20 PM70 °FSunny.6 mph38%30.30 "Hg10 mi
2:50 PM70 °FSunny.5 mph38%30.30 "Hg10 mi
2:20 PM70 °FPassing clouds.5 mph38%30.30 "HgN/A
1:50 PM70 °FPassing clouds.8 mph40%30.30 "HgN/A
1:20 PM68 °FPassing clouds.8 mph43%30.30 "HgN/A
12:50 PM68 °FPassing clouds.9 mph43%30.30 "HgN/A
12:20 PM68 °FPassing clouds.8 mph49%30.30 "HgN/A
11:50 AM66 °FPassing clouds.6 mph52%30.30 "HgN/A
11:20 AM64 °FPassing clouds.6 mph56%30.30 "HgN/A
10:50 AM63 °FPassing clouds.7 mph59%30.30 "HgN/A
10:20 AM63 °FPassing clouds.6 mph59%30.30 "HgN/A
9:50 AM59 °FPassing clouds.5 mph63%30.30 "HgN/A
9:20 AM57 °FPassing clouds.5 mph67%30.27 "HgN/A
8:50 AM55 °FPassing clouds.3 mph72%30.27 "HgN/A
8:20 AM54 °FSunny.3 mph72%30.27 "Hg10 mi
7:50 AM52 °FPassing clouds.3 mph77%30.27 "HgN/A
7:20 AM50 °FPassing clouds.5 mph82%30.27 "HgN/A
6:50 AM50 °FPassing clouds.3 mph82%30.24 "HgN/A
6:20 AM50 °FPassing clouds.5 mph82%30.24 "HgN/A
5:50 AM50 °FClear.5 mph82%30.24 "Hg10 mi
5:20 AM50 °FClear.3 mph76%30.24 "Hg10 mi
4:50 AM50 °FClear.3 mph76%30.24 "Hg10 mi
4:20 AM48 °FClear.2 mph82%30.24 "Hg10 mi
3:50 AM48 °FClear.2 mph82%30.24 "Hg10 mi
3:20 AM50 °FClear.2 mph76%30.21 "Hg10 mi
2:50 AM50 °FClear.2 mph76%30.21 "Hg10 mi
2:20 AM52 °FClear.3 mph72%30.21 "Hg10 mi
1:50 AM54 °FClear.2 mph72%30.21 "Hg10 mi
1:20 AM54 °FClear.2 mph67%30.21 "Hg10 mi
12:50 AM54 °FClear.2 mph72%30.21 "Hg10 mi
12:20 AM54 °FClear.2 mph72%30.21 "Hg10 mi
11:50 PM
Mon, Sep 26
54 °FClear.2 mph72%30.21 "Hg10 mi
11:20 PM55 °FClear.2 mph63%30.21 "Hg10 mi
10:50 PM57 °FPassing clouds.3 mph63%30.21 "HgN/A
10:20 PM59 °FPassing clouds.5 mph59%30.21 "HgN/A
9:50 PM59 °FClear.3 mph59%30.21 "Hg10 mi
9:20 PM61 °FPassing clouds.3 mph59%30.21 "HgN/A
Weather by CustomWeather, © 2016

See weather overviewHow to use our weather pages